Station 44065 (LLNR 725) - New York Harbor Entrance - 15 NM SE of Breezy Point , NY Image indicating link to RSS feed of recent meteorological observations for station 44065

NY Harbor Approach (Ambrose Light)


Conditions at 44065 as of
(2:20 am EDT)
0620 GMT on 05/30/2024:
     

Click on the graph icon in the table below to see a time series plot of the last five days of that observation.

5-day plot - Wind Direction Wind Direction (WDIR): N ( 360 deg true )
5-day plot - Wind Speed Wind Speed (WSPD): 1.9 kts
5-day plot - Wind Gust Wind Gust (GST): 3.9 kts
5-day plot - Wave Height Wave Height (WVHT): 2.0 ft
5-day plot - Dominant Wave Period Dominant Wave Period (DPD): 8 sec
5-day plot - Average Wave Period Average Period (APD): 5.9 sec
5-day plot - Mean Wave Direction Mean Wave Direction (MWD): SE ( 124 deg true )
5-day plot - Atmospheric Pressure Atmospheric Pressure (PRES):29.89 in
5-day plot - Air Temperature Air Temperature (ATMP): 61.9 °F
5-day plot - Water Temperature Water Temperature (WTMP): 64.4 °F
5-day plot - Dew Point Dew Point (DEWP): 58.6 °F
5-day plot - Wind Speed at 10 Meters Wind Speed at 10 meters (WSPD10M): 1.9 kts
5-day plot - Wind Speed at 20 Meters Wind Speed at 20 meters (WSPD20M): 1.9 kts
5-day plot -  Wind Speed, Wind Gust and Atmospheric Pressure Combined plot of Wind Speed, Gust, and Air Pressure
Supplemental Measurements
Highest 1-minute Wind Speed
Time (EDT)5-day plot - 1-Minute Wind Speed WSPD 5-day plot - 1-Minute Wind Direction WDIR
2:19 am 3.9 kts-
Previous observations
TIME
(EDT)
5-day plot - Wind Direction
WDIR
 
5-day plot - Wind Speed
WSPD
kts
5-day plot - Wind Gust
GST
kts
5-day plot - Wave Height
WVHT
ft
5-day plot - Dominant Wave Period
DPD
sec
5-day plot - Average Wave Period
APD
sec
5-day plot - Mean Wave Direction
MWD
 
5-day plot - Atmospheric Pressure
PRES
in
5-day plot - Pressure Tendency
PTDY
in
5-day plot - Air Temperature
ATMP
°F
5-day plot - Water Temperature
WTMP
°F
5-day plot - Dew Point
DEWP
°F
5-day plot - Salinity
SAL
psu
5-day plot - Visibility
VIS
nmi
5-day plot - Tide (above MLLW)
TIDE
ft
2024-05-30 02:10 amNNE 1.9 3.9----29.90- 62.1 64.4 58.5---
2024-05-30 02:00 amNNE 1.9 3.9----29.90-0.02 62.1 64.4 58.8---
2024-05-30 01:50 amENE 3.9 5.8 2.3 85.5 SE29.90- 62.2 64.4 59.7---
2024-05-30 01:40 amENE 5.8 7.8----29.91- 62.2 64.4 59.9---
2024-05-30 01:30 am NE 7.8 9.7----29.89- 62.2 64.2 59.5---
2024-05-30 01:20 am NE 7.8 11.7----29.89- 62.2 64.2 59.4---
2024-05-30 01:10 amNNE 7.8 9.7----29.90- 62.2 64.2 59.7---
2024-05-30 01:00 amNNE 7.8 9.7----29.91-0.02 62.4 64.0 59.9---
2024-05-30 12:50 amNNE 9.7 11.7 2.3 84.9ESE29.90- 62.6 64.0 59.5---
2024-05-30 12:40 amNNE 7.8 11.7----29.89- 62.8 64.0 59.0---
2024-05-30 12:30 am N 9.7 11.7----29.90- 62.6 64.0 59.0---
2024-05-30 12:20 am N 9.7 11.7 2.3 84.4 SE29.90- 62.6 64.0 59.5---
2024-05-30 12:10 am N 7.8 9.7 2.3-4.4 SE29.91- 62.8 64.0 59.7---
2024-05-30 12:00 amNNW 9.7 11.7----29.91+0.01 63.0 64.0 59.7---
2024-05-29 11:50 pmNNW 11.7 13.6 2.3 74.1ESE29.91- 63.0 63.9 59.5---
2024-05-29 11:40 pmNNW 11.7 13.6 2.3-4.1ESE29.91- 63.1 63.9 59.5---
2024-05-29 11:30 pm NW 11.7 15.5----29.92- 63.1 63.9 59.5---
2024-05-29 11:20 pmNNW 11.7 15.5 2.6 84.1ESE29.92- 63.1 63.9 59.2---
2024-05-29 11:10 pm NW 11.7 15.5 2.6-4.1ESE29.92- 63.0 63.9 59.0---
2024-05-29 11:00 pm NW 13.6 15.5----29.92+0.04 62.8 63.9 59.2---
2024-05-29 10:50 pm NW 13.6 17.5 2.3 84.1ESE29.91- 62.6 63.9 59.2---
2024-05-29 10:40 pm NW 13.6 19.4----29.92- 62.6 63.9 59.2---
2024-05-29 10:30 pm NW 15.5 19.4----29.92- 63.0 63.9 59.7---
2024-05-29 10:20 pm NW 15.5 19.4 2.3 74.7ESE29.91- 62.8 64.0 60.3---
2024-05-29 10:10 pmWNW 17.5 21.4 2.3-4.7ESE29.92- 62.2 64.0 60.4---
2024-05-29 10:00 pmWNW 15.5 21.4----29.92+0.04 62.2 64.0 61.0---
2024-05-29 09:50 pmWNW 15.5 19.4 2.3 84.6 E29.91- 63.0 64.0 61.3---
2024-05-29 09:40 pm W 15.5 17.5----29.91- 62.8 64.0 59.9---
2024-05-29 09:30 pmWSW 15.5 19.4----29.92- 63.7 64.2 61.5---
2024-05-29 09:20 pm SW 15.5 19.4 2.3 74.7 E29.91- 64.4 64.4 61.3---
2024-05-29 09:10 pmSSW 15.5 21.4 2.3-4.7 E29.91- 64.9 64.6 62.6---
2024-05-29 09:00 pm S 11.7 15.5----29.90+0.00 65.1 64.6 62.8---
2024-05-29 08:50 pmSSE 9.7 11.7 2.6 85.1ESE29.89- 65.1 64.6 62.4---
2024-05-29 08:40 pmSSE 11.7 11.7----29.88- 65.1 64.6 62.2---
2024-05-29 08:30 pmSSE 11.7 13.6----29.89- 65.1 64.4 62.2---
2024-05-29 08:20 pmSSE 9.7 11.7 2.6 75.0ESE29.89- 65.1 64.6 62.1---
2024-05-29 08:10 pm S 7.8 11.7 2.6-5.0ESE29.89- 65.1 64.6 62.1---
2024-05-29 08:00 pm S 9.7 11.7----29.88-0.01 65.1 64.9 61.9---
2024-05-29 07:50 pm S 9.7 11.7 2.6 75.0ESE29.88- 65.3 65.3 61.7---
2024-05-29 07:40 pm S 9.7 11.7----29.89- 65.3 65.7 61.5---
2024-05-29 07:30 pm S 9.7 11.7----29.89- 65.5 66.0 61.5---
2024-05-29 07:20 pm S 9.7 11.7 2.6 84.8ESE29.88- 65.7 65.8 61.5---
2024-05-29 07:10 pm S 11.7 13.6----29.88- 65.7 65.8 61.3---
2024-05-29 07:00 pm S 11.7 13.6----29.89-0.01 65.8 66.2 61.9---
2024-05-29 06:50 pm S 11.7 13.6 2.6 84.6ESE29.89- 66.0 66.0 61.3---
2024-05-29 06:40 pm S 13.6 15.5----29.89- 66.2 66.4 61.0---
2024-05-29 06:30 pm S 13.6 17.5----29.89- 66.2 66.7 60.4---
2024-05-29 06:20 pm S 13.6 15.5 2.6 84.9ESE29.89- 66.4 66.7 60.6---
2024-05-29 06:10 pm S 11.7 13.6----29.89- 66.6 66.9 60.8---
2024-05-29 06:00 pm S 11.7 15.5----29.89-0.02 66.7 66.9 59.9---
2024-05-29 05:50 pm S 11.7 13.6 2.6 85.4ESE29.90- 66.9 66.4 59.4---
2024-05-29 05:40 pm S 11.7 13.6----29.90- 67.1 66.2 58.8---
2024-05-29 05:30 pm S 11.7 13.6----29.90- 67.1 66.6 59.7---
2024-05-29 05:20 pm S 11.7 13.6 2.6 86.0 SE29.90- 67.5 66.0 59.7---
2024-05-29 05:10 pm S 9.7 11.7 2.6-6.0 SE29.90- 67.3 65.8 59.7---
2024-05-29 05:00 pm S 9.7 11.7----29.90-0.03 67.1 65.7 59.7---
2024-05-29 04:50 pm S 7.8 11.7 2.3 76.0 SE29.89- 67.1 65.1 60.4---
2024-05-29 04:40 pm S 9.7 9.7----29.90- 67.1 64.9 59.7---
2024-05-29 04:30 pm S 9.7 11.7----29.90- 66.9 65.1 59.2---
2024-05-29 04:20 pm S 9.7 13.6 2.6 86.2SSE29.90- 66.9 65.3 59.5---
2024-05-29 04:10 pm S 11.7 13.6 2.6-6.2SSE29.90- 67.1 65.3 59.7---
2024-05-29 04:00 pm S 9.7 11.7----29.90-0.04 67.8 65.1 58.8---
2024-05-29 03:50 pmSSE 7.8 9.7 2.3 76.2 SE29.90- 67.6 65.1 58.1---
2024-05-29 03:40 pmSSE 5.8 7.8----29.90- 67.3 65.3 57.9---
2024-05-29 03:30 pm SE 3.9 5.8----29.91- 67.3 65.3 57.4---
2024-05-29 03:20 pmESE 3.9 5.8 3.0 86.4SSE29.91- 67.1 65.3 57.2---
2024-05-29 03:10 pm SE 3.9 3.9 3.0-6.4SSE29.91- 67.1 64.6 57.6---
2024-05-29 03:00 pmSSE 3.9 5.8----29.91-0.04 66.9 64.8 57.2---
2024-05-29 02:50 pmSSE 3.9 5.8 3.0 86.4 SE29.91- 66.7 65.1 57.6---
2024-05-29 02:40 pmSSE 3.9 5.8----29.92- 66.9 64.9 57.6---
2024-05-29 02:30 pm SE 3.9 3.9----29.92- 66.7 64.8 57.6---
2024-05-29 02:20 pmSSE 3.9 3.9 3.3 86.9 SE29.92- 66.7 65.1 57.6---
2024-05-29 02:10 pm S 3.9 5.8 3.3-6.9 SE29.93- 66.6 65.3 57.2---
2024-05-29 02:00 pm S 1.9 3.9----29.93-0.02 66.6 64.9 57.0---
2024-05-29 01:50 pm SW 1.9 1.9 3.0 86.5 SE29.93- 66.7 65.3 56.8---
2024-05-29 01:40 pm W 1.9 1.9----29.93- 66.4 65.3 57.2---
2024-05-29 01:30 pm W 1.9 3.9----29.93- 66.0 65.1 57.4---
2024-05-29 01:20 pm W 3.9 3.9 2.6 76.4 SE29.93- 65.8 65.3 57.6---
2024-05-29 01:10 pm W 3.9 5.8 2.6-6.4 SE29.94- 65.7 65.1 57.6---
2024-05-29 01:00 pm W 3.9 5.8----29.94+0.01 65.7 65.1 57.4---
2024-05-29 12:50 pm W 3.9 3.9 2.6 86.4ESE29.95- 65.7 65.1 57.4---
2024-05-29 12:40 pm W 3.9 3.9----29.95- 65.5 64.8 57.2---
2024-05-29 12:30 pmWSW 3.9 5.8----29.95- 65.3 65.1 57.2---
2024-05-29 12:20 pm SW 5.8 7.8 3.0 86.6 SE29.96- 65.1 64.9 57.0---
2024-05-29 12:10 pm SW 5.8 7.8 3.0-6.6 SE29.96- 64.9 65.1 57.4---
2024-05-29 12:00 pm SW 5.8 7.8----29.96+0.05 64.9 64.9 57.9---
2024-05-29 11:50 am SW 5.8 7.8 3.0 86.6 SE29.96- 64.9 64.9 57.2---
2024-05-29 11:40 amWSW 5.8 7.8----29.96- 64.8 64.8 56.7---
2024-05-29 11:30 amWSW 5.8 5.8----29.96- 64.6 64.6 57.6---
2024-05-29 11:20 amWSW 5.8 5.8 3.0 86.2 SE29.96- 64.6 64.6 57.9---
2024-05-29 11:10 amWSW 5.8 5.8 3.0-6.2 SE29.95- 64.4 64.4 57.0---
2024-05-29 11:00 amWSW 5.8 5.8----29.95+0.04 64.4 64.4 57.4---
2024-05-29 10:50 amWSW 5.8 5.8 2.6 86.0 SE29.95- 64.4 64.6 57.4---
2024-05-29 10:40 am W 5.8 5.8----29.95- 64.2 64.2 57.2---
2024-05-29 10:30 am W 5.8 7.8----29.94- 64.2 64.2 56.8---
2024-05-29 10:20 am W 5.8 7.8 2.6 85.4ESE29.94- 64.0 64.2 57.0---
2024-05-29 10:10 amWNW 5.8 7.8 2.6-5.4ESE29.93- 63.9 64.0 57.6---
2024-05-29 10:00 amWNW 7.8 9.7----29.93+0.04 63.7 64.0 57.6---
2024-05-29 09:50 amWNW 7.8 11.7 2.6 85.0 SE29.93- 63.5 64.0 57.6---
2024-05-29 09:40 amWNW 9.7 11.7 2.6-5.0 SE29.92- 63.5 63.9 57.6---
2024-05-29 09:30 am NW 9.7 11.7----29.91- 63.3 63.9 57.6---
2024-05-29 09:20 am NW 11.7 13.6 2.6 85.0 SE29.91- 63.1 63.9 57.9---
2024-05-29 09:10 am NW 11.7 13.6 2.6-5.0 SE29.91- 63.1 63.9 57.9---
2024-05-29 09:00 am NW 11.7 13.6----29.91+0.04 63.0 63.9 57.6---
2024-05-29 08:50 am NW 11.7 13.6 2.6 85.1 SE29.91- 63.0 63.9 57.6---
2024-05-29 08:40 am NW 11.7 13.6----29.91- 63.0 63.9 57.4---
2024-05-29 08:30 amWNW 11.7 15.5----29.91- 63.0 63.9 57.4---
2024-05-29 08:20 amWNW 11.7 13.6 2.6 85.0 SE29.91- 63.0 63.9 57.6---
2024-05-29 08:10 amWNW 11.7 13.6 2.6-5.0 SE29.91- 63.1 63.9 57.6---
2024-05-29 08:00 amWNW 11.7 13.6----29.91+0.06 63.1 63.9 57.6---
2024-05-29 07:50 amWNW 11.7 15.5 2.6 75.0 SE29.91- 63.1 63.9 57.4---
2024-05-29 07:40 amWNW 11.7 15.5----29.91- 63.1 63.9 57.9---
2024-05-29 07:30 amWNW 11.7 13.6----29.91- 63.1 63.9 58.3---
2024-05-29 07:20 amWNW 9.7 11.7 2.6 85.2 SE29.90- 63.1 63.9 58.3---
2024-05-29 07:10 amWNW 9.7 11.7 2.6-5.2 SE29.90- 63.1 64.0 58.3---
2024-05-29 07:00 am W 11.7 13.6----29.89+0.04 63.3 63.9 58.5---
2024-05-29 06:50 am W 9.7 11.7 2.6 84.8 SE29.89- 63.3 63.9 58.1---
2024-05-29 06:40 amWNW 11.7 13.6----29.89- 63.3 63.9 58.1---
2024-05-29 06:30 amWNW 9.7 11.7----29.89- 63.5 63.9 58.3---
2024-05-29 06:20 amWNW 9.7 13.6 2.6 84.4 SE29.88- 63.5 64.0 58.3---
2024-05-29 06:10 amWNW 11.7 13.6 2.6-4.4 SE29.88- 63.5 64.0 58.5---
2024-05-29 06:00 amWNW 11.7 13.6----29.87+0.01 63.7 64.0 58.6---
2024-05-29 05:50 amWNW 11.7 13.6 2.6 84.5 SE29.87- 63.7 64.0 58.6---
2024-05-29 05:40 amWNW 11.7 13.6----29.87- 63.7 64.0 58.6---
2024-05-29 05:30 amWNW 11.7 15.5----29.86- 63.9 64.0 59.0---
2024-05-29 05:20 amWNW 11.7 13.6 2.6 84.8 SE29.86- 63.9 64.0 58.8---
2024-05-29 05:10 amWNW 13.6 15.5 2.6-4.8 SE29.85- 64.0 64.0 58.6---
2024-05-29 05:00 amWNW 11.7 15.5----29.85+0.01 64.0 64.0 59.0---
2024-05-29 04:50 amWNW 11.7 15.5 2.3 84.9 SE29.85- 64.2 64.0 59.0---
2024-05-29 04:40 amWNW 11.7 15.5----29.85- 64.2 64.0 59.5---
2024-05-29 04:30 amWNW 11.7 13.6----29.85- 64.2 64.0 59.9---
2024-05-29 04:20 amWNW 9.7 11.7 2.6 85.4 SE29.85- 64.2 64.0 59.5---
2024-05-29 04:10 amWNW 9.7 13.6----29.85- 64.4 64.0 59.5---
2024-05-29 04:00 am W 9.7 11.7----29.85+0.01 64.4 64.0 59.9---
2024-05-29 03:50 am W 7.8 9.7 2.6 85.6 SE29.85- 64.2 64.0 60.1---
2024-05-29 03:40 am W 7.8 11.7----29.85- 64.2 64.2 59.7---
2024-05-29 03:30 am W 7.8 9.7----29.85- 64.2 64.2 59.4---
2024-05-29 03:20 am W 7.8 9.7 2.6 85.3 SE29.85- 64.4 64.2 59.2---
2024-05-29 03:10 am W 7.8 9.7 2.6-5.3 SE29.86- 64.6 64.2 59.4---
2024-05-29 03:00 am W 7.8 9.7----29.86+0.03 64.8 64.2 59.4---
2024-05-29 02:50 am W 7.8 9.7 2.6 85.3 SE29.86- 64.9 64.2 59.4---
2024-05-29 02:40 am W 9.7 9.7----29.85- 65.1 64.2 59.0---
2024-05-29 02:30 amWNW 7.8 11.7----29.85- 65.1 64.2 59.4---
2024-05-29 02:20 am W 7.8 11.7 3.0 85.3 SE29.85- 64.9 64.4 59.7---
2024-05-29 02:10 am W 7.8 9.7 3.0-5.3 SE29.85- 64.9 64.2 60.1---
2024-05-29 02:00 am W 7.8 9.7----29.84+0.02 65.3 64.2 59.9---
2024-05-29 01:50 am W 7.8 9.7 2.6 55.0 S29.84- 65.3 64.4 60.1---

Detailed Wave Summary
for 44065 as of (2:10 am EDT)
0610 GMT on 05/30/2024:

These wave data are displayed in rounded times.

     

Click on the graph icon in the table below to see a time series plot of the last five days of that observation.

5-day plot - Significant Wave Height Significant Wave Height (WVHT): 2.0 ft
5-day plot - Swell Height Swell Height (SwH): 2.0 ft
5-day plot - Swell Period Swell Period (SwP): 7.7 sec
5-day plot - Swell Direction Swell Direction (SwD): SE
5-day plot - Wind Wave Height Wind Wave Height (WWH): 0.7 ft
5-day plot - Wind Wave Period Wind Wave Period (WWP): 3.4 sec
5-day plot - Wind Wave Direction Wind Wave Direction (WWD): S
5-day plot - Average Wave Period Average Wave Period (APD): 5.9 sec
Previous observations
TIME
(EDT)
5-day plot - Wave Height
WVHT
ft
5-day plot - Swell Height
SwH
ft
5-day plot - Swell Period
SwP
sec
5-day plot - Swell Direction
SwD
 
5-day plot - Wind Wave Height
WWH
ft
5-day plot - Wind Wave Period
WWP
sec
5-day plot - Wind Wave Direction
WWD
 
5-day plot - Wave Steepness
STEEPNESS
 
5-day plot - Average Wave Period
APD
sec
2024-05-30 01:40 am 2.3 2.0 8.3 SE 0.7 3.4 S N/A 5.5
2024-05-30 12:40 am 2.3 2.0 8.3ESE 1.0 3.6 SSW N/A 4.9
2024-05-30 12:10 am 2.3 2.0 7.7 SE 1.3 3.6 WSW N/A 4.4
2024-05-29 11:40 pm 2.3 1.6 7.1ESE 1.3 2.9 WNW N/A 4.1
2024-05-29 11:10 pm 2.6 2.0 7.7ESE 1.6 2.9 WNW N/A 4.1
2024-05-29 10:40 pm 2.3 2.0 8.3ESE 1.3 2.7 WNW N/A 4.1
2024-05-29 10:10 pm 2.3 2.0 7.1ESE 1.0 2.6 SSW N/A 4.7
2024-05-29 09:40 pm 2.3 2.0 8.3 E 1.3 2.5 S N/A 4.6
2024-05-29 09:10 pm 2.3 2.0 7.1 E 1.3 4.8 SSE N/A 4.7
2024-05-29 08:40 pm 2.6 2.3 7.7ESE 1.3 5.3 SSE N/A 5.1
2024-05-29 08:10 pm 2.6 2.3 7.1ESE 1.0 4.0 S N/A 5.0
2024-05-29 07:40 pm 2.6 2.3 7.1ESE 1.3 4.2 SSE N/A 5.0
2024-05-29 07:10 pm 2.6 2.3 8.3ESE 1.3 2.6 SSW N/A 4.8
2024-05-29 06:40 pm 2.6 2.3 7.7ESE 1.3 4.8 SSE N/A 4.6
2024-05-29 06:10 pm 2.6 2.0 7.7ESE 1.3 4.3 S N/A 4.9
2024-05-29 05:40 pm 2.6 2.0 7.7ESE 1.3 5.0 SSE N/A 5.4
2024-05-29 05:10 pm 2.6 2.6 7.7 SE 1.0 4.5 SSE SWELL 6.0
2024-05-29 04:40 pm 2.3 2.3 7.1 SE 0.7 3.8 S N/A 6.0
2024-05-29 04:10 pm 2.6 2.3 7.7SSE 1.3 5.3 SSE SWELL 6.2
2024-05-29 03:40 pm 2.3 2.3 7.1 SE 0.7 3.7 S N/A 6.2
2024-05-29 03:10 pm 3.0 2.6 7.7SSE 0.7 4.0 SSE AVERAGE 6.4
2024-05-29 02:40 pm 3.0 2.6 7.7 SE 0.7 4.0 S AVERAGE 6.4
2024-05-29 02:10 pm 3.3 3.3 8.3 SE 0.3 3.3 S SWELL 6.9
2024-05-29 01:40 pm 3.0 3.0 7.7 SE 0.7 3.8 S AVERAGE 6.5
2024-05-29 01:10 pm 2.6 2.6 6.7 SE 0.3 3.8 SSE AVERAGE 6.4
2024-05-29 12:40 pm 2.6 2.6 8.3ESE 0.7 3.8 SSE SWELL 6.4
2024-05-29 12:10 pm 3.0 2.6 7.7 SE 0.3 3.8 S AVERAGE 6.6
2024-05-29 11:40 am 3.0 3.0 7.7 SE 0.3 3.4 S AVERAGE 6.6
2024-05-29 11:10 am 3.0 2.6 7.7 SE 0.7 2.1 WNW AVERAGE 6.2
2024-05-29 10:40 am 2.6 2.6 8.3 SE 0.7 2.2 NW SWELL 6.0
2024-05-29 10:10 am 2.6 2.3 7.7ESE 0.7 2.6 WNW N/A 5.4
2024-05-29 09:40 am 2.6 2.3 7.7 SE 1.3 2.7 NW N/A 5.0
2024-05-29 09:10 am 2.6 2.3 7.7 SE 1.3 2.6 NW SWELL 5.0
2024-05-29 08:40 am 2.6 2.3 7.7 SE 1.3 5.0 S SWELL 5.1
2024-05-29 08:10 am 2.6 2.3 8.3 SE 1.3 5.0 S SWELL 5.0
2024-05-29 07:40 am 2.6 2.3 7.1 SE 1.3 2.5 WNW AVERAGE 5.0
2024-05-29 07:10 am 2.6 2.3 7.7 SE 1.3 4.8 SSE SWELL 5.2
2024-05-29 06:40 am 2.6 2.0 8.3 SE 1.3 4.5 SSE N/A 4.8
2024-05-29 06:10 am 2.6 2.0 7.7 SE 1.6 4.8 SSE N/A 4.4
2024-05-29 05:40 am 2.6 2.3 7.7 SE 1.3 2.6 WNW N/A 4.5
2024-05-29 05:10 am 2.6 2.0 8.3 SE 2.0 5.9 SE SWELL 4.8
2024-05-29 04:40 am 2.3 2.0 8.3 SE 1.6 4.8 SSE N/A 4.9
2024-05-29 04:10 am 2.6 2.3 8.3 SE 1.3 4.2 S N/A 5.4
2024-05-29 03:40 am 2.6 2.6 8.3 SE 1.0 3.4 S SWELL 5.6
2024-05-29 03:10 am 2.6 2.6 7.7 SE 1.0 2.6 S SWELL 5.3
2024-05-29 02:40 am 2.6 2.6 7.7 SE 1.0 3.8 S SWELL 5.3
2024-05-29 02:10 am 3.0 2.6 8.3 SE 1.0 4.0 S SWELL 5.3

Plot of wave energy versus frequency (and period)